Year,Month,Day,Hour,Minute,Value (Times are PST for temperature in C)
2011,01,11,00,00,1.00
2011,01,11,00,01,1.00
2011,01,11,00,02,1.00
2011,01,11,00,03,1.00
2011,01,11,00,04,1.00
2011,01,11,00,05,1.00
2011,01,11,00,06,1.00
2011,01,11,00,07,1.00
2011,01,11,00,08,1.00
2011,01,11,00,09,1.00
2011,01,11,00,10,1.10
2011,01,11,00,11,1.10
2011,01,11,00,12,1.10
2011,01,11,00,13,1.10
2011,01,11,00,14,1.10
2011,01,11,00,15,1.10
2011,01,11,00,16,1.10
2011,01,11,00,17,1.00
2011,01,11,00,18,1.00
2011,01,11,00,19,1.00
2011,01,11,00,20,1.00
2011,01,11,00,21,1.00
2011,01,11,00,22,1.00
2011,01,11,00,23,1.00
2011,01,11,00,24,0.90
2011,01,11,00,25,0.90
2011,01,11,00,26,0.90
2011,01,11,00,27,0.90
2011,01,11,00,28,0.90
2011,01,11,00,29,0.90
2011,01,11,00,30,0.90
2011,01,11,00,31,0.90
2011,01,11,00,32,0.90
2011,01,11,00,33,0.90
2011,01,11,00,34,0.90
2011,01,11,00,35,0.90
2011,01,11,00,36,0.90
2011,01,11,00,37,0.90
2011,01,11,00,38,0.90
2011,01,11,00,39,0.90
2011,01,11,00,40,0.90
2011,01,11,00,41,0.90
2011,01,11,00,42,0.90
2011,01,11,00,43,0.90
2011,01,11,00,44,0.90
2011,01,11,00,45,0.90
2011,01,11,00,46,0.90
2011,01,11,00,47,0.90
2011,01,11,00,48,1.00
2011,01,11,00,49,1.00
2011,01,11,00,50,1.00
2011,01,11,00,51,1.00
2011,01,11,00,52,1.00
2011,01,11,00,53,1.00
2011,01,11,00,54,1.00
2011,01,11,00,55,1.00
2011,01,11,00,56,1.00
2011,01,11,00,57,1.00
2011,01,11,00,58,1.00
2011,01,11,00,59,1.00
2011,01,11,01,00,1.00
2011,01,11,01,01,1.00
2011,01,11,01,02,1.00
2011,01,11,01,03,1.00
2011,01,11,01,04,1.00
2011,01,11,01,05,1.00
2011,01,11,01,06,1.00
2011,01,11,01,07,1.00
2011,01,11,01,08,1.00
2011,01,11,01,09,1.00
2011,01,11,01,10,1.00
2011,01,11,01,11,1.00
2011,01,11,01,12,1.00
2011,01,11,01,13,1.10
2011,01,11,01,14,1.10
2011,01,11,01,15,1.10
2011,01,11,01,16,1.10
2011,01,11,01,17,1.10
2011,01,11,01,18,1.20
2011,01,11,01,19,1.20
2011,01,11,01,20,1.20
2011,01,11,01,21,1.20
2011,01,11,01,22,1.30
2011,01,11,01,23,1.30
2011,01,11,01,24,1.30
2011,01,11,01,25,1.30
2011,01,11,01,26,1.30
2011,01,11,01,27,1.30
2011,01,11,01,28,1.30
2011,01,11,01,29,1.30
2011,01,11,01,30,1.30
2011,01,11,01,31,1.30
2011,01,11,01,32,1.30
2011,01,11,01,33,1.30
2011,01,11,01,34,1.30
2011,01,11,01,35,1.30
2011,01,11,01,36,1.30
2011,01,11,01,37,1.30
2011,01,11,01,38,1.30
2011,01,11,01,39,1.30
2011,01,11,01,40,1.40
2011,01,11,01,41,1.40
2011,01,11,01,42,1.40
2011,01,11,01,43,1.40
2011,01,11,01,44,1.30
2011,01,11,01,45,1.30
2011,01,11,01,46,1.30
2011,01,11,01,47,1.30
2011,01,11,01,48,1.30
2011,01,11,01,49,1.30
2011,01,11,01,50,1.30
2011,01,11,01,51,1.30
2011,01,11,01,52,1.30
2011,01,11,01,53,1.30
2011,01,11,01,54,1.30
2011,01,11,01,55,1.30
2011,01,11,01,56,1.30
2011,01,11,01,57,1.30
2011,01,11,01,58,1.30
2011,01,11,01,59,1.30
2011,01,11,02,00,1.30
2011,01,11,02,01,1.30
2011,01,11,02,02,1.30
2011,01,11,02,03,1.30
2011,01,11,02,04,1.30
2011,01,11,02,05,1.30
2011,01,11,02,06,1.30
2011,01,11,02,07,1.30
2011,01,11,02,08,1.30
2011,01,11,02,09,1.30
2011,01,11,02,10,1.20
2011,01,11,02,11,1.20
2011,01,11,02,12,1.20
2011,01,11,02,13,1.20
2011,01,11,02,14,1.20
2011,01,11,02,15,1.20
2011,01,11,02,16,1.20
2011,01,11,02,17,1.20
2011,01,11,02,18,1.20
2011,01,11,02,19,1.20
2011,01,11,02,20,1.20
2011,01,11,02,21,1.20
2011,01,11,02,22,1.20
2011,01,11,02,23,1.20
2011,01,11,02,24,1.20
2011,01,11,02,25,1.20
2011,01,11,02,26,1.20
2011,01,11,02,27,1.20
2011,01,11,02,28,1.20
2011,01,11,02,29,1.20
2011,01,11,02,30,1.20
2011,01,11,02,31,1.20
2011,01,11,02,32,1.10
2011,01,11,02,33,1.10
2011,01,11,02,34,1.10
2011,01,11,02,35,1.10
2011,01,11,02,36,1.10
2011,01,11,02,37,1.10
2011,01,11,02,38,1.10
2011,01,11,02,39,1.20
2011,01,11,02,40,1.10
2011,01,11,02,41,1.10
2011,01,11,02,42,1.10
2011,01,11,02,43,1.10
2011,01,11,02,44,1.10
2011,01,11,02,45,1.10
2011,01,11,02,46,1.10
2011,01,11,02,47,1.10
2011,01,11,02,48,1.10
2011,01,11,02,49,1.10
2011,01,11,02,50,1.10
2011,01,11,02,51,1.10
2011,01,11,02,52,1.10
2011,01,11,02,53,1.10
2011,01,11,02,54,1.00
2011,01,11,02,55,1.00
2011,01,11,02,56,1.00
2011,01,11,02,57,1.00
2011,01,11,02,58,1.00
2011,01,11,02,59,1.00
2011,01,11,03,00,1.00
2011,01,11,03,01,1.00
2011,01,11,03,02,1.00
2011,01,11,03,03,1.00
2011,01,11,03,04,1.00
2011,01,11,03,05,1.00
2011,01,11,03,06,1.10
2011,01,11,03,07,1.10
2011,01,11,03,08,1.10
2011,01,11,03,09,1.10
2011,01,11,03,10,1.10
2011,01,11,03,11,1.10
2011,01,11,03,12,1.20
2011,01,11,03,13,1.20
2011,01,11,03,14,1.20
2011,01,11,03,15,1.20
2011,01,11,03,16,1.20
2011,01,11,03,17,1.20
2011,01,11,03,18,1.20
2011,01,11,03,19,1.20
2011,01,11,03,20,1.20
2011,01,11,03,21,1.20
2011,01,11,03,22,1.20
2011,01,11,03,23,1.20
2011,01,11,03,24,1.20
2011,01,11,03,25,1.20
2011,01,11,03,26,1.20
2011,01,11,03,27,1.20
2011,01,11,03,28,1.20
2011,01,11,03,29,1.20
2011,01,11,03,30,1.20
2011,01,11,03,31,1.20
2011,01,11,03,32,1.20
2011,01,11,03,33,1.20
2011,01,11,03,34,1.20
2011,01,11,03,35,1.20
2011,01,11,03,36,1.20
2011,01,11,03,37,1.20
2011,01,11,03,38,1.20
2011,01,11,03,39,1.20
2011,01,11,03,40,1.20
2011,01,11,03,41,1.20
2011,01,11,03,42,1.20
2011,01,11,03,43,1.20
2011,01,11,03,44,1.20
2011,01,11,03,45,1.20
2011,01,11,03,46,1.20
2011,01,11,03,47,1.20
2011,01,11,03,48,1.20
2011,01,11,03,49,1.20
2011,01,11,03,50,1.20
2011,01,11,03,51,1.20
2011,01,11,03,52,1.20
2011,01,11,03,53,1.20
2011,01,11,03,54,1.20
2011,01,11,03,55,1.20
2011,01,11,03,56,1.20
2011,01,11,03,57,1.20
2011,01,11,03,58,1.20
2011,01,11,03,59,1.20
2011,01,11,04,00,1.20
2011,01,11,04,01,1.20
2011,01,11,04,02,1.20
2011,01,11,04,03,1.20
2011,01,11,04,04,1.30
2011,01,11,04,05,1.30
2011,01,11,04,06,1.30
2011,01,11,04,07,1.30
2011,01,11,04,08,1.30
2011,01,11,04,09,1.30
2011,01,11,04,10,1.20
2011,01,11,04,11,1.20
2011,01,11,04,12,1.20
2011,01,11,04,13,1.20
2011,01,11,04,14,1.20
2011,01,11,04,15,1.20
2011,01,11,04,16,1.20
2011,01,11,04,17,1.20
2011,01,11,04,18,1.20
2011,01,11,04,19,1.20
2011,01,11,04,20,1.20
2011,01,11,04,21,1.20
2011,01,11,04,22,1.20
2011,01,11,04,23,1.20
2011,01,11,04,24,1.20
2011,01,11,04,25,1.20
2011,01,11,04,26,1.20
2011,01,11,04,27,1.20
2011,01,11,04,28,1.10
2011,01,11,04,29,1.10
2011,01,11,04,30,1.10
2011,01,11,04,31,1.10
2011,01,11,04,32,1.10
2011,01,11,04,33,1.10
2011,01,11,04,34,1.10
2011,01,11,04,35,1.10
2011,01,11,04,36,1.10
2011,01,11,04,37,1.10
2011,01,11,04,38,1.10
2011,01,11,04,39,1.00
2011,01,11,04,40,1.00
2011,01,11,04,41,1.00
2011,01,11,04,42,1.00
2011,01,11,04,43,1.00
2011,01,11,04,44,1.00
2011,01,11,04,45,1.00
2011,01,11,04,46,1.00
2011,01,11,04,47,1.00
2011,01,11,04,48,1.00
2011,01,11,04,49,1.00
2011,01,11,04,50,1.00
2011,01,11,04,51,1.00
2011,01,11,04,52,1.00
2011,01,11,04,53,1.00
2011,01,11,04,54,1.00
2011,01,11,04,55,1.00
2011,01,11,04,56,1.00
2011,01,11,04,57,0.90
2011,01,11,04,58,0.90
2011,01,11,04,59,0.90
2011,01,11,05,00,0.90
2011,01,11,05,01,0.90
2011,01,11,05,02,0.90
2011,01,11,05,03,0.90
2011,01,11,05,04,0.90
2011,01,11,05,05,0.90
2011,01,11,05,06,0.90
2011,01,11,05,07,1.00
2011,01,11,05,08,0.90
2011,01,11,05,09,0.90
2011,01,11,05,10,0.90
2011,01,11,05,11,0.90
2011,01,11,05,12,0.90
2011,01,11,05,13,0.90
2011,01,11,05,14,0.90
2011,01,11,05,15,0.90
2011,01,11,05,16,0.90
2011,01,11,05,17,0.90
2011,01,11,05,18,0.90
2011,01,11,05,19,0.90
2011,01,11,05,20,0.90
2011,01,11,05,21,0.90
2011,01,11,05,22,0.90
2011,01,11,05,23,1.00
2011,01,11,05,24,1.00
2011,01,11,05,25,0.90
2011,01,11,05,26,0.90
2011,01,11,05,27,0.90
2011,01,11,05,28,0.90
2011,01,11,05,29,0.90
2011,01,11,05,30,0.80
2011,01,11,05,31,0.80
2011,01,11,05,32,0.80
2011,01,11,05,33,0.80
2011,01,11,05,34,0.80
2011,01,11,05,35,0.80
2011,01,11,05,36,0.80
2011,01,11,05,37,0.80
2011,01,11,05,38,0.80
2011,01,11,05,39,0.80
2011,01,11,05,40,0.80
2011,01,11,05,41,0.80
2011,01,11,05,42,0.80
2011,01,11,05,43,0.80
2011,01,11,05,44,0.80
2011,01,11,05,45,0.80
2011,01,11,05,46,0.80
2011,01,11,05,47,0.80
2011,01,11,05,48,0.80
2011,01,11,05,49,0.80
2011,01,11,05,50,0.90
2011,01,11,05,51,0.90
2011,01,11,05,52,0.90
2011,01,11,05,53,0.90
2011,01,11,05,54,0.90
2011,01,11,05,55,0.90
2011,01,11,05,56,1.00
2011,01,11,05,57,1.00
2011,01,11,05,58,1.00
2011,01,11,05,59,1.00
2011,01,11,06,00,1.00
2011,01,11,06,01,1.00
2011,01,11,06,02,1.00
2011,01,11,06,03,1.00
2011,01,11,06,04,1.00
2011,01,11,06,05,1.00
2011,01,11,06,06,1.00
2011,01,11,06,07,1.00
2011,01,11,06,08,1.00
2011,01,11,06,09,1.00
2011,01,11,06,10,1.00
2011,01,11,06,11,1.00
2011,01,11,06,12,1.00
2011,01,11,06,13,1.00
2011,01,11,06,14,1.00
2011,01,11,06,15,0.90
2011,01,11,06,16,0.90
2011,01,11,06,17,0.90
2011,01,11,06,18,0.80
2011,01,11,06,19,0.80
2011,01,11,06,20,0.80
2011,01,11,06,21,0.90
2011,01,11,06,22,0.90
2011,01,11,06,23,0.90
2011,01,11,06,24,0.90
2011,01,11,06,25,0.90
2011,01,11,06,26,0.90
2011,01,11,06,27,0.90
2011,01,11,06,28,0.90
2011,01,11,06,29,0.90
2011,01,11,06,30,0.90
2011,01,11,06,31,0.90
2011,01,11,06,32,0.90
2011,01,11,06,33,0.90
2011,01,11,06,34,1.00
2011,01,11,06,35,1.00
2011,01,11,06,36,1.00
2011,01,11,06,37,1.00
2011,01,11,06,38,0.90
2011,01,11,06,39,0.90
2011,01,11,06,40,0.90
2011,01,11,06,41,0.90
2011,01,11,06,42,0.90
2011,01,11,06,43,0.80
2011,01,11,06,44,0.80
2011,01,11,06,45,0.80
2011,01,11,06,46,0.80
2011,01,11,06,47,0.80
2011,01,11,06,48,0.80
2011,01,11,06,49,0.80
2011,01,11,06,50,0.80
2011,01,11,06,51,0.80
2011,01,11,06,52,0.80
2011,01,11,06,53,0.80
2011,01,11,06,54,0.80
2011,01,11,06,55,0.80
2011,01,11,06,56,0.80
2011,01,11,06,57,0.80
2011,01,11,06,58,0.80
2011,01,11,06,59,0.80
2011,01,11,07,00,0.80
2011,01,11,07,01,0.80
2011,01,11,07,02,0.80
2011,01,11,07,03,0.80
2011,01,11,07,04,0.80
2011,01,11,07,05,0.80
2011,01,11,07,06,0.80
2011,01,11,07,07,0.80
2011,01,11,07,08,0.80
2011,01,11,07,09,0.80
2011,01,11,07,10,0.80
2011,01,11,07,11,0.80
2011,01,11,07,12,0.80
2011,01,11,07,13,0.80
2011,01,11,07,14,0.80
2011,01,11,07,15,0.80
2011,01,11,07,16,0.80
2011,01,11,07,17,0.80
2011,01,11,07,18,0.80
2011,01,11,07,19,0.80
2011,01,11,07,20,0.80
2011,01,11,07,21,0.80
2011,01,11,07,22,0.80
2011,01,11,07,23,0.80
2011,01,11,07,24,0.80
2011,01,11,07,25,0.80
2011,01,11,07,26,0.80
2011,01,11,07,27,0.80
2011,01,11,07,28,0.80
2011,01,11,07,29,0.80
2011,01,11,07,30,0.80
2011,01,11,07,31,0.70
2011,01,11,07,32,0.70
2011,01,11,07,33,0.70
2011,01,11,07,34,0.70
2011,01,11,07,35,0.70
2011,01,11,07,36,0.70
2011,01,11,07,37,0.70
2011,01,11,07,38,0.70
2011,01,11,07,39,0.80
2011,01,11,07,40,0.80
2011,01,11,07,41,0.80
2011,01,11,07,42,0.80
2011,01,11,07,43,0.80
2011,01,11,07,44,0.80
2011,01,11,07,45,0.80
2011,01,11,07,46,0.80
2011,01,11,07,47,0.80
2011,01,11,07,48,0.80
2011,01,11,07,49,0.80
2011,01,11,07,50,0.80
2011,01,11,07,51,0.80
2011,01,11,07,52,0.80
2011,01,11,07,53,0.80
2011,01,11,07,54,0.80
2011,01,11,07,55,0.80
2011,01,11,07,56,0.80
2011,01,11,07,57,0.80
2011,01,11,07,58,0.80
2011,01,11,07,59,0.80
2011,01,11,08,00,0.80
2011,01,11,08,01,0.80
2011,01,11,08,02,0.80
2011,01,11,08,03,0.80
2011,01,11,08,04,0.80
2011,01,11,08,05,0.80
2011,01,11,08,06,0.80
2011,01,11,08,07,0.80
2011,01,11,08,08,0.80
2011,01,11,08,09,0.80
2011,01,11,08,10,0.80
2011,01,11,08,11,0.80
2011,01,11,08,12,0.80
2011,01,11,08,13,0.80
2011,01,11,08,14,0.80
2011,01,11,08,15,0.80
2011,01,11,08,16,0.80
2011,01,11,08,17,0.80
2011,01,11,08,18,0.80
2011,01,11,08,19,0.80
2011,01,11,08,20,0.90
2011,01,11,08,21,0.90
2011,01,11,08,22,0.90
2011,01,11,08,23,0.80
2011,01,11,08,24,0.80
2011,01,11,08,25,0.80
2011,01,11,08,26,0.80
2011,01,11,08,27,0.90
2011,01,11,08,28,0.90
2011,01,11,08,29,0.90
2011,01,11,08,30,0.90
2011,01,11,08,31,0.80
2011,01,11,08,32,0.80
2011,01,11,08,33,0.80
2011,01,11,08,34,0.80
2011,01,11,08,35,0.80
2011,01,11,08,36,0.80
2011,01,11,08,37,0.80
2011,01,11,08,38,0.80
2011,01,11,08,39,0.80
2011,01,11,08,40,0.80
2011,01,11,08,41,0.80
2011,01,11,08,42,0.80
2011,01,11,08,43,0.80
2011,01,11,08,44,0.90
2011,01,11,08,45,0.90
2011,01,11,08,46,0.90
2011,01,11,08,47,0.90
2011,01,11,08,48,0.90
2011,01,11,08,49,0.90
2011,01,11,08,50,0.90
2011,01,11,08,51,0.90
2011,01,11,08,52,0.90
2011,01,11,08,53,0.90
2011,01,11,08,54,0.90
2011,01,11,08,55,0.90
2011,01,11,08,56,0.90
2011,01,11,08,57,0.90
2011,01,11,08,58,0.90
2011,01,11,08,59,1.00
2011,01,11,09,00,1.00
2011,01,11,09,01,1.00
2011,01,11,09,02,1.10
2011,01,11,09,03,1.10
2011,01,11,09,04,1.10
2011,01,11,09,05,1.20
2011,01,11,09,06,1.20
2011,01,11,09,07,1.20
2011,01,11,09,08,1.20
2011,01,11,09,09,1.20
2011,01,11,09,10,1.20
2011,01,11,09,11,1.30
2011,01,11,09,12,1.30
2011,01,11,09,13,1.30
2011,01,11,09,14,1.30
2011,01,11,09,15,1.30
2011,01,11,09,16,1.30
2011,01,11,09,17,1.30
2011,01,11,09,18,1.30
2011,01,11,09,19,1.30
2011,01,11,09,20,1.30
2011,01,11,09,21,1.30
2011,01,11,09,22,1.30
2011,01,11,09,23,1.30
2011,01,11,09,24,1.30
2011,01,11,09,25,1.30
2011,01,11,09,26,1.30
2011,01,11,09,27,1.30
2011,01,11,09,28,1.30
2011,01,11,09,29,1.30
2011,01,11,09,30,1.30
2011,01,11,09,31,1.30
2011,01,11,09,32,1.30
2011,01,11,09,33,1.30
2011,01,11,09,34,1.30
2011,01,11,09,35,1.30
2011,01,11,09,36,1.30
2011,01,11,09,37,1.30
2011,01,11,09,38,1.30
2011,01,11,09,39,1.30
2011,01,11,09,40,1.30
2011,01,11,09,41,1.30
2011,01,11,09,42,1.30
2011,01,11,09,43,1.30
2011,01,11,09,44,1.30
2011,01,11,09,45,1.40
2011,01,11,09,46,1.40
2011,01,11,09,47,1.40
2011,01,11,09,48,1.40
2011,01,11,09,49,1.40
2011,01,11,09,50,1.40
2011,01,11,09,51,1.50
2011,01,11,09,52,1.50
2011,01,11,09,53,1.50
2011,01,11,09,54,1.50
2011,01,11,09,55,1.50
2011,01,11,09,56,1.50
2011,01,11,09,57,1.50
2011,01,11,09,58,1.50
2011,01,11,09,59,1.50
2011,01,11,10,00,1.50
2011,01,11,10,01,1.60
2011,01,11,10,02,1.60
2011,01,11,10,03,1.60
2011,01,11,10,04,1.60
2011,01,11,10,05,1.60
2011,01,11,10,06,1.60
2011,01,11,10,07,1.60
2011,01,11,10,08,1.60
2011,01,11,10,09,1.60
2011,01,11,10,10,1.60
2011,01,11,10,11,1.60
2011,01,11,10,12,1.60
2011,01,11,10,13,1.60
2011,01,11,10,14,1.60
2011,01,11,10,15,1.60
2011,01,11,10,16,1.60
2011,01,11,10,17,1.70
2011,01,11,10,18,1.70
2011,01,11,10,19,1.70
2011,01,11,10,20,1.70
2011,01,11,10,21,1.70
2011,01,11,10,22,1.70
2011,01,11,10,23,1.70
2011,01,11,10,24,1.70
2011,01,11,10,25,1.80
2011,01,11,10,26,1.80
2011,01,11,10,27,1.80
2011,01,11,10,28,1.80
2011,01,11,10,29,1.80
2011,01,11,10,30,1.80
2011,01,11,10,31,1.80
2011,01,11,10,32,1.80
2011,01,11,10,33,1.80
2011,01,11,10,34,1.80
2011,01,11,10,35,1.80
2011,01,11,10,36,1.80
2011,01,11,10,37,1.80
2011,01,11,10,38,1.80
2011,01,11,10,39,1.80
2011,01,11,10,40,1.80
2011,01,11,10,41,1.80
2011,01,11,10,42,1.80
2011,01,11,10,43,1.80
2011,01,11,10,44,1.80
2011,01,11,10,45,1.80
2011,01,11,10,46,1.80
2011,01,11,10,47,1.80
2011,01,11,10,48,1.90
2011,01,11,10,49,1.90
2011,01,11,10,50,1.90
2011,01,11,10,51,1.90
2011,01,11,10,52,1.90
2011,01,11,10,53,1.90
2011,01,11,10,54,1.90
2011,01,11,10,55,1.90
2011,01,11,10,56,1.90
2011,01,11,10,57,1.90
2011,01,11,10,58,1.90
2011,01,11,10,59,2.00
2011,01,11,11,00,2.00
2011,01,11,11,01,2.00
2011,01,11,11,02,2.00
2011,01,11,11,03,2.00
2011,01,11,11,04,2.00
2011,01,11,11,05,2.00
2011,01,11,11,06,2.00
2011,01,11,11,07,2.00
2011,01,11,11,08,2.00
2011,01,11,11,09,2.00
2011,01,11,11,10,2.00
2011,01,11,11,11,2.10
2011,01,11,11,12,2.10
2011,01,11,11,13,2.10
2011,01,11,11,14,2.10
2011,01,11,11,15,2.10
2011,01,11,11,16,2.10
2011,01,11,11,17,2.10
2011,01,11,11,18,2.10
2011,01,11,11,19,2.10
2011,01,11,11,20,2.10
2011,01,11,11,21,2.10
2011,01,11,11,22,2.20
2011,01,11,11,23,2.20
2011,01,11,11,24,2.20
2011,01,11,11,25,2.20
2011,01,11,11,26,2.20
2011,01,11,11,27,2.20
2011,01,11,11,28,2.20
2011,01,11,11,29,2.20
2011,01,11,11,30,2.20
2011,01,11,11,31,2.20
2011,01,11,11,32,2.20
2011,01,11,11,33,2.20
2011,01,11,11,34,2.20
2011,01,11,11,35,2.20
2011,01,11,11,36,2.20
2011,01,11,11,37,2.20
2011,01,11,11,38,2.20
2011,01,11,11,39,2.20
2011,01,11,11,40,2.20
2011,01,11,11,41,2.20
2011,01,11,11,42,2.20
2011,01,11,11,43,2.20
2011,01,11,11,44,2.20
2011,01,11,11,45,2.20
2011,01,11,11,46,2.20
2011,01,11,11,47,2.20
2011,01,11,11,48,2.20
2011,01,11,11,49,2.20
2011,01,11,11,50,2.20
2011,01,11,11,51,2.20
2011,01,11,11,52,2.20
2011,01,11,11,53,2.20
2011,01,11,11,54,2.20
2011,01,11,11,55,2.20
2011,01,11,11,56,2.20
2011,01,11,11,57,2.20
2011,01,11,11,58,2.20
2011,01,11,11,59,2.20
2011,01,11,12,00,2.20
2011,01,11,12,01,2.20
2011,01,11,12,02,2.20
2011,01,11,12,03,2.20
2011,01,11,12,04,2.20
2011,01,11,12,05,2.20
2011,01,11,12,06,2.20
2011,01,11,12,07,2.20
2011,01,11,12,08,2.20
2011,01,11,12,09,2.20
2011,01,11,12,10,2.20
2011,01,11,12,11,2.20
2011,01,11,12,12,2.20
2011,01,11,12,13,2.20
2011,01,11,12,14,2.20
2011,01,11,12,15,2.20
2011,01,11,12,16,2.20
2011,01,11,12,17,2.30
2011,01,11,12,18,2.20
2011,01,11,12,19,2.30
2011,01,11,12,20,2.20
2011,01,11,12,21,2.20
2011,01,11,12,22,2.20
2011,01,11,12,23,2.20
2011,01,11,12,24,2.20
2011,01,11,12,25,2.20
2011,01,11,12,26,2.20
2011,01,11,12,27,2.20
2011,01,11,12,28,2.20
2011,01,11,12,29,2.20
2011,01,11,12,30,2.20
2011,01,11,12,31,2.20
2011,01,11,12,32,2.20
2011,01,11,12,33,2.20
2011,01,11,12,34,2.20
2011,01,11,12,35,2.20
2011,01,11,12,36,2.20
2011,01,11,12,37,2.20
2011,01,11,12,38,2.20
2011,01,11,12,39,2.20
2011,01,11,12,40,2.20
2011,01,11,12,41,2.20
2011,01,11,12,42,2.20
2011,01,11,12,43,2.20
2011,01,11,12,44,2.20
2011,01,11,12,45,2.20
2011,01,11,12,46,2.20
2011,01,11,12,47,2.20
2011,01,11,12,48,2.20
2011,01,11,12,49,2.20
2011,01,11,12,50,2.20
2011,01,11,12,51,2.20
2011,01,11,12,52,2.20
2011,01,11,12,53,2.20
2011,01,11,12,54,2.20
2011,01,11,12,55,2.20
2011,01,11,12,56,2.20
2011,01,11,12,57,2.20
2011,01,11,12,58,2.20
2011,01,11,12,59,2.20
2011,01,11,13,00,2.20
2011,01,11,13,01,2.20
2011,01,11,13,02,2.20
2011,01,11,13,03,2.20
2011,01,11,13,04,2.20
2011,01,11,13,05,2.20
2011,01,11,13,06,2.20
2011,01,11,13,07,2.20
2011,01,11,13,08,2.20
2011,01,11,13,09,2.30
2011,01,11,13,10,2.30
2011,01,11,13,11,2.20
2011,01,11,13,12,2.20
2011,01,11,13,13,2.20
2011,01,11,13,14,2.20
2011,01,11,13,15,2.20
2011,01,11,13,16,2.20
2011,01,11,13,17,2.20
2011,01,11,13,18,2.20
2011,01,11,13,19,2.20
2011,01,11,13,20,2.20
2011,01,11,13,21,2.20
2011,01,11,13,22,2.20
2011,01,11,13,23,2.20
2011,01,11,13,24,2.20
2011,01,11,13,25,2.20
2011,01,11,13,26,2.20
2011,01,11,13,27,2.20
2011,01,11,13,28,2.20
2011,01,11,13,29,2.20
2011,01,11,13,30,2.20
2011,01,11,13,31,2.20
2011,01,11,13,32,2.20
2011,01,11,13,33,2.20
2011,01,11,13,34,2.20
2011,01,11,13,35,2.20
2011,01,11,13,36,2.20
2011,01,11,13,37,2.20
2011,01,11,13,38,2.20
2011,01,11,13,39,2.10
2011,01,11,13,40,2.10
2011,01,11,13,41,2.10
2011,01,11,13,42,2.10
2011,01,11,13,43,2.10
2011,01,11,13,44,2.00
2011,01,11,13,45,2.00
2011,01,11,13,46,2.00
2011,01,11,13,47,2.00
2011,01,11,13,48,2.00
2011,01,11,13,49,2.00
2011,01,11,13,50,1.90
2011,01,11,13,51,1.90
2011,01,11,13,52,1.90
2011,01,11,13,53,1.90
2011,01,11,13,54,1.90
2011,01,11,13,55,1.90
2011,01,11,13,56,1.90
2011,01,11,13,57,1.80
2011,01,11,13,58,1.80
2011,01,11,13,59,1.80
2011,01,11,14,00,1.80
2011,01,11,14,01,1.80
2011,01,11,14,02,1.80
2011,01,11,14,03,1.80
2011,01,11,14,04,1.70
2011,01,11,14,05,1.70
2011,01,11,14,06,1.60
2011,01,11,14,07,1.60
2011,01,11,14,08,1.60
2011,01,11,14,09,1.60
2011,01,11,14,10,1.50
2011,01,11,14,11,1.50
2011,01,11,14,12,1.50
2011,01,11,14,13,1.50
2011,01,11,14,14,1.40
2011,01,11,14,15,1.40
2011,01,11,14,16,1.40
2011,01,11,14,17,1.40
2011,01,11,14,18,1.30
2011,01,11,14,19,1.30
2011,01,11,14,20,1.30
2011,01,11,14,21,1.30
2011,01,11,14,22,1.30
2011,01,11,14,23,1.30
2011,01,11,14,24,1.30
2011,01,11,14,25,1.20
2011,01,11,14,26,1.20
2011,01,11,14,27,1.20
2011,01,11,14,28,1.20
2011,01,11,14,29,1.20
2011,01,11,14,30,1.10
2011,01,11,14,31,1.10
2011,01,11,14,32,1.10
2011,01,11,14,33,1.10
2011,01,11,14,34,1.10
2011,01,11,14,35,1.10
2011,01,11,14,36,1.10
2011,01,11,14,37,1.10
2011,01,11,14,38,1.10
2011,01,11,14,39,1.10
2011,01,11,14,40,1.10
2011,01,11,14,41,1.00
2011,01,11,14,42,1.00
2011,01,11,14,43,1.00
2011,01,11,14,44,1.00
2011,01,11,14,45,1.00
2011,01,11,14,46,1.00
2011,01,11,14,47,0.90
2011,01,11,14,48,0.90
2011,01,11,14,49,0.90
2011,01,11,14,50,0.90
2011,01,11,14,51,0.90
2011,01,11,14,52,0.80
2011,01,11,14,53,0.80
2011,01,11,14,54,0.80
2011,01,11,14,55,0.80
2011,01,11,14,56,0.80
2011,01,11,14,57,0.80
2011,01,11,14,58,0.80
2011,01,11,14,59,0.80
2011,01,11,15,00,0.80
2011,01,11,15,01,0.70
2011,01,11,15,02,0.70
2011,01,11,15,03,0.70
2011,01,11,15,04,0.70
2011,01,11,15,05,0.70
2011,01,11,15,06,0.70
2011,01,11,15,07,0.70
2011,01,11,15,08,0.70
2011,01,11,15,09,0.70
2011,01,11,15,10,0.70
2011,01,11,15,11,0.70
2011,01,11,15,12,0.70
2011,01,11,15,13,0.70
2011,01,11,15,14,0.70
2011,01,11,15,15,0.70
2011,01,11,15,16,0.70
2011,01,11,15,17,0.70
2011,01,11,15,18,0.70
2011,01,11,15,19,0.70
2011,01,11,15,20,0.80
2011,01,11,15,21,0.80
2011,01,11,15,22,0.80
2011,01,11,15,23,0.80
2011,01,11,15,24,0.80
2011,01,11,15,25,0.80
2011,01,11,15,26,0.80
2011,01,11,15,27,0.80
2011,01,11,15,28,0.80
2011,01,11,15,29,0.80
2011,01,11,15,30,0.80
2011,01,11,15,31,0.80
2011,01,11,15,32,0.80
2011,01,11,15,33,0.80
2011,01,11,15,34,0.80
2011,01,11,15,35,0.80
2011,01,11,15,36,0.80
2011,01,11,15,37,0.80
2011,01,11,15,38,0.80
2011,01,11,15,39,0.80
2011,01,11,15,40,0.80
2011,01,11,15,41,0.80
2011,01,11,15,42,0.80
2011,01,11,15,43,0.80
2011,01,11,15,44,0.80
2011,01,11,15,45,0.80
2011,01,11,15,46,0.80
2011,01,11,15,47,0.80
2011,01,11,15,48,0.80
2011,01,11,15,49,0.80
2011,01,11,15,50,0.80
2011,01,11,15,51,0.80
2011,01,11,15,52,0.80
2011,01,11,15,53,0.80
2011,01,11,15,54,0.80
2011,01,11,15,55,0.80
2011,01,11,15,56,0.70
2011,01,11,15,57,0.70
2011,01,11,15,58,0.70
2011,01,11,15,59,0.80
2011,01,11,16,00,0.80
2011,01,11,16,01,0.80
2011,01,11,16,02,0.80
2011,01,11,16,03,0.80
2011,01,11,16,04,0.80
2011,01,11,16,05,0.80
2011,01,11,16,06,0.80
2011,01,11,16,07,0.80
2011,01,11,16,08,0.80
2011,01,11,16,09,0.80
2011,01,11,16,10,0.80
2011,01,11,16,11,0.80
2011,01,11,16,12,0.80
2011,01,11,16,13,0.80
2011,01,11,16,14,0.80
2011,01,11,16,15,0.80
2011,01,11,16,16,0.80
2011,01,11,16,17,0.80
2011,01,11,16,18,0.80
2011,01,11,16,19,0.80
2011,01,11,16,20,0.80
2011,01,11,16,21,0.80
2011,01,11,16,22,0.80
2011,01,11,16,23,0.80
2011,01,11,16,24,0.80
2011,01,11,16,25,0.80
2011,01,11,16,26,0.80
2011,01,11,16,27,0.80
2011,01,11,16,28,0.80
2011,01,11,16,29,0.80
2011,01,11,16,30,0.80
2011,01,11,16,31,0.80
2011,01,11,16,32,0.80
2011,01,11,16,33,0.80
2011,01,11,16,34,0.80
2011,01,11,16,35,0.80
2011,01,11,16,36,0.80
2011,01,11,16,37,0.80
2011,01,11,16,38,0.80
2011,01,11,16,39,0.80
2011,01,11,16,40,0.90
2011,01,11,16,41,0.90
2011,01,11,16,42,0.90
2011,01,11,16,43,0.90
2011,01,11,16,44,1.00
2011,01,11,16,45,1.00
2011,01,11,16,46,1.00
2011,01,11,16,47,1.00
2011,01,11,16,48,1.00
2011,01,11,16,49,1.00
2011,01,11,16,50,1.00
2011,01,11,16,51,1.00
2011,01,11,16,52,1.00
2011,01,11,16,53,1.00
2011,01,11,16,54,1.00
2011,01,11,16,55,1.00
2011,01,11,16,56,1.00
2011,01,11,16,57,1.00
2011,01,11,16,58,1.00
2011,01,11,16,59,1.00
2011,01,11,17,00,1.00
2011,01,11,17,01,1.00
2011,01,11,17,02,1.00
2011,01,11,17,03,1.00
2011,01,11,17,04,1.00
2011,01,11,17,05,0.90
2011,01,11,17,06,0.90
2011,01,11,17,07,0.90
2011,01,11,17,08,0.90
2011,01,11,17,09,0.90
2011,01,11,17,10,0.90
2011,01,11,17,11,0.80
2011,01,11,17,12,0.80
2011,01,11,17,13,0.80
2011,01,11,17,14,0.80
2011,01,11,17,15,0.80
2011,01,11,17,16,0.80
2011,01,11,17,17,0.80
2011,01,11,17,18,0.80
2011,01,11,17,19,0.80
2011,01,11,17,20,0.80
2011,01,11,17,21,0.70
2011,01,11,17,22,0.70
2011,01,11,17,23,0.70
2011,01,11,17,24,0.70
2011,01,11,17,25,0.70
2011,01,11,17,26,0.70
2011,01,11,17,27,0.70
2011,01,11,17,28,0.70
2011,01,11,17,29,0.70
2011,01,11,17,30,0.70
2011,01,11,17,31,0.70
2011,01,11,17,32,0.60
2011,01,11,17,33,0.60
2011,01,11,17,34,0.60
2011,01,11,17,35,0.60
2011,01,11,17,36,0.60
2011,01,11,17,37,0.60
2011,01,11,17,38,0.50
2011,01,11,17,39,0.50
2011,01,11,17,40,0.50
2011,01,11,17,41,0.50
2011,01,11,17,42,0.50
2011,01,11,17,43,0.50
2011,01,11,17,44,0.50
2011,01,11,17,45,0.50
2011,01,11,17,46,0.50
2011,01,11,17,47,0.50
2011,01,11,17,48,0.50
2011,01,11,17,49,0.50
2011,01,11,17,50,0.50
2011,01,11,17,51,0.50
2011,01,11,17,52,0.50
2011,01,11,17,53,0.40
2011,01,11,17,54,0.40
2011,01,11,17,55,0.40
2011,01,11,17,56,0.40
2011,01,11,17,57,0.40
2011,01,11,17,58,0.40
2011,01,11,17,59,0.40
2011,01,11,18,00,0.40
2011,01,11,18,01,0.40
2011,01,11,18,02,0.40
2011,01,11,18,03,0.40
2011,01,11,18,04,0.40
2011,01,11,18,05,0.40
2011,01,11,18,06,0.40